GW6455 Weather Reports


time (UTC)temp
C
wind
direction
speed
KPH
gust
KPH
rain 1hr
cm
rain 24hr
cm
rain mn
cm
humidity
%
barometer
mb
20260906205814 18 45 3.2 4.8 0.00 0.00 0.00 58 1013.6
20260906205310 18 197 3.2 3.2 0.00 0.00 0.00 57 1013.7
20260906204805 18 128 9.7 12.9 0.00 0.00 0.00 57 1013.7
20260906204304 18 71 4.8 6.4 0.00 0.00 0.00 58 1013.7
20260906203804 18 98 6.4 9.7 0.00 0.00 0.00 57 1013.8
20260906203259 18 134 11.3 12.9 0.00 0.00 0.00 57 1013.8
20260906202756 18 139 11.3 14.5 0.00 0.00 0.00 56 1014.0
20260906202255 18 150 6.4 9.7 0.00 0.00 0.00 55 1014.0
20260906201750 18 207 3.2 4.8 0.00 0.00 0.00 55 1013.8
20260906201250 18 148 4.8 9.7 0.00 0.00 0.00 56 1014.0
20260906200745 18 194 4.8 6.4 0.00 0.00 0.00 57 1014.1
20260906200241 18 155 6.4 6.4 0.00 0.00 0.00 55 1014.1
20260906195737 18 160 6.4 9.7 0.00 0.00 0.00 56 1014.1
20260906195233 18 156 3.2 3.2 0.00 0.00 0.00 55 1014.3
20260906194729 18 115 9.7 12.9 0.00 0.00 0.00 54 1014.2
20260906194225 18 191 3.2 4.8 0.00 0.00 0.00 54 1014.3
20260906193720 18 173 4.8 6.4 0.00 0.00 0.00 55 1014.6
20260906193220 18 102 4.8 6.4 0.00 0.00 0.00 55 1014.4
20260906192716 17 112 8.0 9.7 0.00 0.00 0.00 56 1014.4
20260906192210 17 140 6.4 9.7 0.00 0.00 0.00 56 1014.6
20260906191710 17 37 3.2 4.8 0.00 0.00 0.00 56 1014.5
20260906191204 18 66 4.8 11.3 0.00 0.00 0.00 55 1014.6
20260906190704 18 181 1.6 3.2 0.00 0.00 0.00 57 1014.6
20260906190159 18 0 1.6 3.2 0.00 0.00 0.00 57 1014.6
20260906185658 17 160 9.7 12.9 0.00 0.00 0.00 55 1014.4
20260906185157 17 115 6.4 11.3 0.00 0.00 0.00 58 1014.3
20260906184651 17 62 4.8 6.4 0.00 0.00 0.00 59 1014.4
20260906184147 16 58 4.8 6.4 0.00 0.00 0.00 59 1014.4
20260906183642 16 171 3.2 4.8 0.00 0.00 0.00 61 1014.6
20260906183139 16 225 3.2 6.4 0.00 0.00 0.00 59 1014.5
20260906182639 16 191 1.6 1.6 0.00 0.00 0.00 62 1014.5
20260906182135 16 43 3.2 3.2 0.00 0.00 0.00 61 1014.8
20260906181630 15 98 4.8 6.4 0.00 0.00 0.00 62 1014.7
20260906181126 15 127 3.2 4.8 0.00 0.00 0.00 63 1014.8
20260906180621 15 172 4.8 6.4 0.00 0.00 0.00 62 1014.9
20260906180120 15 186 8.0 14.5 0.00 0.00 0.00 63 1014.6
20260906175619 15 166 9.7 12.9 0.00 0.00 0.00 63 1014.9
20260906175114 15 141 8.0 9.7 0.00 0.00 0.00 64 1015.0
20260906174612 15 166 12.9 14.5 0.00 0.00 0.00 63 1015.0
20260906174107 15 115 3.2 4.8 0.00 0.00 0.00 64 1015.1
20260906173602 15 14 3.2 4.8 0.00 0.00 0.00 64 1015.2
20260906173058 15 159 8.0 9.7 0.00 0.00 0.00 62 1015.5
20260906172557 15 159 9.7 11.3 0.00 0.00 0.00 62 1015.5
20260906172053 15 142 6.4 6.4 0.00 0.00 0.00 64 1015.7
20260906171553 14 127 8.0 9.7 0.00 0.00 0.00 65 1015.8
20260906171048 14 288 1.6 1.6 0.00 0.00 0.00 66 1015.8
20260906170544 13 96 6.4 9.7 0.00 0.00 0.00 67 1016.1
20260906170043 13 76 3.2 4.8 0.00 0.00 0.00 67 1016.2
20260906165540 13 143 1.6 3.2 0.00 0.00 0.00 68 1016.1
20260906165035 12 183 3.2 4.8 0.00 0.00 0.00 70 1016.2
20260906164534 12 36 6.4 6.4 0.00 0.00 0.00 69 1016.2
20260906164030 12 125 8.0 11.3 0.00 0.00 0.00 69 1016.3
20260906163526 12 181 4.8 4.8 0.00 0.00 0.00 70 1016.1
20260906163021 12 129 6.4 9.7 0.00 0.00 0.00 69 1016.5
20260906162518 12 332 3.2 3.2 0.00 0.00 0.00 69 1016.4
20260906162013 12 194 1.6 1.6 0.00 0.00 0.00 68 1016.4
20260906161508 12 159 3.2 4.8 0.00 0.00 0.00 70 1016.4
20260906161007 12 67 4.8 4.8 0.00 0.00 0.00 68 1016.6
20260906160506 12 359 3.2 4.8 0.00 0.00 0.00 68 1016.6
20260906160005 11 67 4.8 6.4 0.00 0.00 0.00 69 1016.5
20260906155503 11 95 3.2 6.4 0.00 0.00 0.00 69 1016.6
20260906154959 11 35 4.8 4.8 0.00 0.00 0.00 69 1016.5
20260906154454 11 180 1.6 1.6 0.00 0.00 0.00 71 1016.7
20260906153952 11 351 6.4 9.7 0.00 0.00 0.00 70 1016.7
20260906153451 11 235 1.6 1.6 0.00 0.00 0.00 72 1016.6
20260906152948 11 147 1.6 1.6 0.00 0.00 0.00 73 1016.7
20260906152448 10 278 1.6 1.6 0.00 0.00 0.00 74 1017.0
20260906151946 10 220 0.0 1.6 0.00 0.00 0.00 75 1016.9
20260906151442 10 125 3.2 3.2 0.00 0.00 0.00 74 1016.8
20260906150937 10 48 4.8 4.8 0.00 0.00 0.00 75 1016.9
20260906150433 10 37 1.6 3.2 0.00 0.00 0.00 76 1016.7
20260906145932 9 28 3.2 4.8 0.00 0.00 0.00 77 1016.9
20260906145431 9 11 3.2 6.4 0.00 0.00 0.00 77 1016.7
20260906144926 8 15 6.4 6.4 0.00 0.00 0.00 78 1016.7
20260906144421 8 18 1.6 1.6 0.00 0.00 0.00 78 1016.8
20260906143916 8 25 0.0 1.6 0.00 0.00 0.00 81 1016.8
20260906143412 8 344 3.2 3.2 0.00 0.00 0.00 81 1016.7
20260906142908 7 340 1.6 1.6 0.00 0.00 0.00 83 1016.7
20260906142408 7 301 0.0 0.0 0.00 0.00 0.00 85 1016.8
20260906141908 6 322 1.6 3.2 0.00 0.00 0.00 88 1016.5
20260906141402 6 323 1.6 1.6 0.00 0.00 0.00 91 1016.7
20260906140901 6 324 0.0 0.0 0.00 0.00 0.00 88 1016.7
20260906140356 6 324 1.6 1.6 0.00 0.00 0.00 90 1016.6
20260906135855 6 303 0.0 1.6 0.00 0.00 0.00 88 1016.8
20260906135354 6 17 3.2 3.2 0.00 0.00 0.00 89 1016.6
20260906134849 6 321 0.0 1.6 0.00 0.00 0.00 89 1016.7
20260906134344 6 6 1.6 3.2 0.00 0.00 0.00 91 1016.6
20260906133840 5 310 1.6 3.2 0.00 0.00 0.00 91 1016.4
20260906133336 5 304 1.6 1.6 0.00 0.00 0.00 91 1016.6
20260906132831 5 309 1.6 1.6 0.00 0.00 0.00 91 1016.7
20260906132326 5 320 1.6 1.6 0.00 0.00 0.00 91 1016.7
20260906131822 5 1 3.2 4.8 0.00 0.00 0.00 92 1016.7
20260906131317 5 304 0.0 1.6 0.00 0.00 0.00 93 1016.8
20260906130813 5 316 0.0 1.6 0.00 0.00 0.00 94 1016.6
20260906130312 5 349 1.6 3.2 0.00 0.00 0.00 95 1016.6
20260906125811 5 313 0.0 0.0 0.00 0.00 0.00 94 1016.4
20260906125309 5 344 1.6 3.2 0.00 0.00 0.00 95 1016.4
20260906124810 5 327 0.0 0.0 0.00 0.00 0.00 95 1016.5
20260906124306 5 317 1.6 1.6 0.00 0.00 0.00 95 1016.4
20260906123804 5 323 0.0 0.0 0.00 0.00 0.00 94 1016.4
20260906123259 5 314 1.6 1.6 0.00 0.00 0.00 94 1016.5
20260906122759 5 318 1.6 1.6 0.00 0.00 0.00 94 1016.5
20260906122255 5 312 1.6 1.6 0.00 0.00 0.00 94 1016.6
20260906121751 5 308 0.0 1.6 0.00 0.00 0.00 93 1016.4
20260906121247 6 317 1.6 1.6 0.00 0.00 0.00 92 1016.4
20260906120742 6 313 0.0 1.6 0.00 0.00 0.00 92 1016.4
20260906120239 6 337 1.6 3.2 0.00 0.00 0.00 93 1016.4
20260906115735 6 318 0.0 1.6 0.00 0.00 0.00 93 1016.3
20260906115230 5 299 0.0 0.0 0.00 0.00 0.00 93 1016.4
20260906114729 5 333 1.6 1.6 0.00 0.00 0.00 94 1016.6
20260906114224 5 304 0.0 1.6 0.00 0.00 0.00 93 1016.5
20260906113719 5 306 0.0 0.0 0.00 0.00 0.00 92 1016.6
20260906113219 6 312 0.0 0.0 0.00 0.00 0.00 92 1016.7
20260906112718 6 319 0.0 0.0 0.00 0.00 0.00 94 1016.5
20260906112216 5 326 1.6 3.2 0.00 0.00 0.00 95 1016.8
20260906111714 5 306 1.6 1.6 0.00 0.00 0.00 97 1016.5
20260906111209 5 329 1.6 1.6 0.00 0.00 0.00 97 1016.6
20260906110704 5 316 1.6 1.6 0.00 0.00 0.00 98 1016.5
20260906110201 3 356 1.6 3.2 0.00 0.00 0.00 97 1016.5
20260906105659 3 304 0.0 0.0 0.00 0.00 0.00 98 1016.5
20260906105156 3 299 0.0 0.0 0.00 0.00 0.00 98 1016.7
20260906104655 3 341 3.2 3.2 0.00 0.00 0.00 98 1016.8
20260906104154 3 293 0.0 0.0 0.00 0.00 0.00 98 1016.9
20260906103652 4 293 0.0 0.0 0.00 0.00 0.00 98 1016.8
20260906103148 3 285 0.0 0.0 0.00 0.00 0.00 98 1016.9
20260906102643 3 280 0.0 0.0 0.00 0.00 0.00 98 1016.8
20260906102143 3 272 0.0 0.0 0.00 0.00 0.00 97 1016.7
20260906101642 3 287 0.0 0.0 0.00 0.00 0.00 98 1016.9
20260906101137 3 314 0.0 1.6 0.00 0.00 0.00 98 1017.0
20260906100633 4 295 0.0 0.0 0.00 0.00 0.00 98 1016.9
20260906100128 3 295 0.0 0.0 0.00 0.00 0.00 98 1016.8
20260906095628 3 281 0.0 0.0 0.00 0.00 0.00 97 1017.1
20260906095123 3 281 0.0 0.0 0.00 0.00 0.00 97 1016.9
20260906094622 3 302 1.6 3.2 0.00 0.00 0.00 97 1016.8
20260906094118 3 280 0.0 0.0 0.00 0.00 0.00 97 1016.9
20260906093614 3 280 0.0 0.0 0.00 0.00 0.00 96 1017.0
20260906093114 3 280 0.0 0.0 0.00 0.00 0.00 96 1016.9
20260906092609 4 280 0.0 0.0 0.00 0.00 0.00 96 1017.0
20260906092104 4 280 0.0 0.0 0.00 0.00 0.00 96 1017.2
20260906091559 5 280 0.0 0.0 0.00 0.00 0.00 95 1017.1
20260906091056 5 280 0.0 0.0 0.00 0.00 0.00 95 1017.0
20260906090556 5 310 1.6 1.6 0.00 0.00 0.00 95 1017.3
20260906090056 5 298 1.6 3.2 0.00 0.00 0.00 95 1017.1
20260906085555 5 314 1.6 1.6 0.00 0.00 0.00 95 1017.3
20260906085050 5 307 0.0 0.0 0.00 0.00 0.00 93 1017.1
20260906084545 6 331 1.6 3.2 0.00 0.00 0.00 94 1017.2
20260906084043 5 303 0.0 0.0 0.00 0.00 0.00 93 1017.2
20260906083539 6 333 1.6 3.2 0.00 0.00 0.00 95 1017.3
20260906083039 6 313 0.0 0.0 0.00 0.00 0.00 94 1017.6
20260906082534 6 302 0.0 0.0 0.00 0.00 0.00 93 1017.5
20260906082030 6 302 0.0 0.0 0.00 0.00 0.00 93 1017.5
20260906081525 6 302 0.0 0.0 0.00 0.00 0.00 93 1017.4
20260906081021 6 302 0.0 0.0 0.00 0.00 0.00 92 1017.4
20260906080518 7 300 0.0 0.0 0.00 0.00 0.00 90 1017.5
20260906080014 7 310 1.6 1.6 0.00 0.00 0.00 89 1017.5
20260906075513 7 332 1.6 1.6 0.00 0.00 0.00 90 1017.5
20260906075008 7 307 1.6 1.6 0.00 0.00 0.00 89 1017.6
20260906074503 8 295 0.0 0.0 0.00 0.00 0.00 87 1017.4
20260906074001 7 325 1.6 1.6 0.00 0.00 0.00 87 1017.5
20260906073456 8 343 1.6 1.6 0.00 0.00 0.00 86 1017.4
20260906072952 8 358 1.6 3.2 0.00 0.00 0.00 88 1017.6
20260906072447 8 305 0.0 0.0 0.00 0.00 0.00 85 1017.6
20260906071943 8 323 1.6 1.6 0.00 0.00 0.00 85 1017.6
20260906071439 8 304 1.6 1.6 0.00 0.00 0.00 84 1017.5
20260906070935 8 359 3.2 3.2 0.00 0.00 0.00 84 1017.7
20260906070431 8 359 3.2 3.2 0.00 0.00 0.00 85 1017.5
20260906065926 8 300 0.0 0.0 0.00 0.00 0.00 84 1017.6
20260906065420 9 302 1.6 1.6 0.00 0.00 0.00 82 1017.6
20260906064916 10 303 1.6 1.6 0.00 0.00 0.00 81 1017.5
20260906064413 10 333 1.6 3.2 0.00 0.00 0.00 81 1017.6
20260906063912 10 321 1.6 3.2 0.00 0.00 0.00 80 1017.5
20260906063407 10 305 1.6 1.6 0.00 0.00 0.00 80 1017.5
20260906062902 10 339 1.6 1.6 0.00 0.00 0.00 79 1017.5
20260906062402 10 315 1.6 1.6 0.00 0.00 0.00 79 1017.6
20260906061857 10 73 4.8 4.8 0.00 0.00 0.00 79 1017.5
20260906061354 10 359 1.6 3.2 0.00 0.00 0.00 77 1017.5
20260906060848 10 321 1.6 1.6 0.00 0.00 0.00 77 1017.5
20260906060346 10 322 1.6 1.6 0.00 0.00 0.00 78 1017.7
20260906055841 10 330 3.2 3.2 0.00 0.00 0.00 78 1017.5
20260906055337 10 20 1.6 3.2 0.00 0.00 0.00 78 1017.6
20260906054832 10 324 1.6 1.6 0.00 0.00 0.00 77 1017.5
20260906054327 10 4 1.6 3.2 0.00 0.00 0.00 78 1017.6
20260906053824 10 317 1.6 3.2 0.00 0.00 0.00 77 1017.6
20260906053319 11 303 0.0 1.6 0.00 0.00 0.00 76 1017.5
20260906052814 11 22 3.2 3.2 0.00 0.00 0.00 76 1017.7
20260906052310 11 355 1.6 1.6 0.00 0.00 0.00 75 1017.6
20260906051807 11 9 3.2 3.2 0.00 0.00 0.00 75 1017.6
20260906051307 11 13 3.2 3.2 0.00 0.00 0.00 76 1017.8
20260906050802 11 24 1.6 3.2 0.00 0.00 0.00 75 1017.7
20260906050257 11 1 1.6 3.2 0.00 0.00 0.00 74 1017.5
20260906045756 11 346 1.6 1.6 0.00 0.00 0.00 74 1017.7
20260906045250 11 350 3.2 3.2 0.00 0.00 0.00 74 1017.7
20260906044747 12 19 4.8 6.4 0.00 0.00 0.00 74 1017.7
20260906044241 12 250 0.0 0.0 0.00 0.00 0.00 74 1017.8
20260906043737 12 36 3.2 4.8 0.00 0.00 0.00 74 1017.6
20260906043233 12 308 0.0 1.6 0.00 0.00 0.00 74 1017.6
20260906042733 12 292 0.0 0.0 0.00 0.00 0.00 73 1017.6
20260906042231 12 331 1.6 3.2 0.00 0.00 0.00 73 1017.5
20260906041728 12 347 0.0 1.6 0.00 0.00 0.00 72 1017.7
20260906041223 12 264 0.0 1.6 0.00 0.00 0.00 72 1017.7
20260906040718 13 38 0.0 1.6 0.00 0.00 0.00 72 1017.6
20260906040213 13 79 1.6 3.2 0.00 0.00 0.00 71 1017.6
20260906035709 13 93 1.6 3.2 0.00 0.00 0.00 69 1017.7
20260906035205 13 284 0.0 1.6 0.00 0.00 0.00 69 1017.6
20260906034704 13 310 0.0 1.6 0.00 0.00 0.00 68 1017.6
20260906034159 13 49 4.8 6.4 0.00 0.00 0.00 68 1017.5
20260906033655 13 147 3.2 3.2 0.00 0.00 0.00 69 1017.5
20260906033156 14 225 0.0 0.0 0.00 0.00 0.00 68 1017.7
20260906032651 14 176 1.6 3.2 0.00 0.00 0.00 68 1017.6
20260906032146 14 19 4.8 6.4 0.00 0.00 0.00 67 1017.7
20260906031641 14 60 4.8 11.3 0.00 0.00 0.00 67 1017.7
20260906031137 14 323 1.6 1.6 0.00 0.00 0.00 67 1017.6
20260906030636 15 290 0.0 0.0 0.00 0.00 0.00 65 1017.6
20260906030131 15 184 3.2 3.2 0.00 0.00 0.00 64 1017.5
20260906025630 15 299 0.0 0.0 0.00 0.00 0.00 65 1017.5
20260906025130 15 307 1.6 1.6 0.00 0.00 0.00 64 1017.3
20260906024624 15 308 0.0 0.0 0.00 0.00 0.00 63 1017.4
20260906024119 15 346 1.6 1.6 0.00 0.00 0.00 64 1017.5
20260906023615 15 131 1.6 3.2 0.00 0.00 0.00 64 1017.3
20260906023115 15 15 1.6 1.6 0.00 0.00 0.00 60 1017.2
20260906022610 16 33 1.6 3.2 0.00 0.00 0.00 60 1017.2
20260906022106 16 111 0.0 1.6 0.00 0.00 0.00 58 1017.2
20260906021602 17 254 0.0 0.0 0.00 0.00 0.00 57 1017.3
20260906021100 17 292 1.6 1.6 0.00 0.00 0.00 56 1017.2
20260906020600 17 303 0.0 1.6 0.00 0.00 0.00 56 1017.4
20260906020059 17 266 1.6 1.6 0.00 0.00 0.00 55 1017.3
20260906015554 18 18 3.2 3.2 0.00 0.00 0.00 55 1017.5
20260906015053 18 309 0.0 1.6 0.00 0.00 0.00 55 1017.3
20260906014548 18 221 0.0 1.6 0.00 0.00 0.00 54 1017.2
20260906014044 18 43 6.4 6.4 0.00 0.00 0.00 54 1017.3
20260906013538 18 25 6.4 6.4 0.00 0.00 0.00 54 1017.3
20260906013034 18 327 1.6 1.6 0.00 0.00 0.00 54 1017.3
20260906012529 19 95 3.2 4.8 0.00 0.00 0.00 53 1017.1
20260906012028 19 260 0.0 0.0 0.00 0.00 0.00 52 1017.2
20260906011525 19 302 4.8 4.8 0.00 0.00 0.00 52 1017.1
20260906011025 20 13 3.2 4.8 0.00 0.00 0.00 52 1017.1
20260906010520 20 153 0.0 1.6 0.00 0.00 0.00 52 1017.3
20260906010017 20 159 3.2 4.8 0.00 0.00 0.00 51 1017.2
20260906005516 20 184 3.2 6.4 0.00 0.00 0.00 50 1017.5
20260906005015 20 149 3.2 3.2 0.00 0.00 0.00 45 1017.4
20260906004514 20 127 3.2 3.2 0.00 0.00 0.00 46 1017.4
20260906004009 20 204 1.6 1.6 0.00 0.00 0.00 47 1017.3
20260906003504 20 251 1.6 1.6 0.00 0.00 0.00 50 1017.3
20260906003001 20 24 4.8 9.7 0.00 0.00 0.00 50 1017.4
20260906002500 20 174 6.4 6.4 0.00 0.00 0.00 46 1017.5
20260906001955 21 130 3.2 3.2 0.00 0.00 0.00 44 1017.4
20260906001451 21 236 0.0 0.0 0.00 0.00 0.00 44 1017.4
20260906000946 21 187 3.2 3.2 0.00 0.00 0.00 43 1017.6
20260906000442 20 165 3.2 4.8 0.00 0.00 0.00 44 1017.6
20260905235936 21 159 3.2 3.2 0.00 0.00 0.00 44 1017.5
20260905235436 21 60 3.2 3.2 0.00 0.00 0.00 45 1018.0
20260905234931 21 198 1.6 3.2 0.00 0.00 0.00 44 1017.5
20260905234426 21 219 1.6 1.6 0.00 0.00 0.00 44 1017.7
20260905233921 21 183 1.6 3.2 0.00 0.00 0.00 44 1018.0
20260905233416 21 223 1.6 1.6 0.00 0.00 0.00 42 1017.6
20260905232915 20 181 3.2 3.2 0.00 0.00 0.00 44 1017.7
20260905232411 21 140 4.8 4.8 0.00 0.00 0.00 44 1018.0
20260905231906 21 235 0.0 1.6 0.00 0.00 0.00 44 1017.6
20260905231402 21 117 6.4 6.4 0.00 0.00 0.00 43 1018.0
20260905230859 21 266 0.0 0.0 0.00 0.00 0.00 43 1018.0
20260905230356 21 201 3.2 4.8 0.00 0.00 0.00 45 1018.0
20260905225855 21 252 1.6 1.6 0.00 0.00 0.00 44 1018.0
20260905225350 21 146 4.8 4.8 0.00 0.00 0.00 44 1017.8
20260905224846 20 219 3.2 4.8 0.00 0.00 0.00 45 1018.0
20260905224342 20 209 8.0 9.7 0.00 0.00 0.00 45 1018.1
20260905223841 20 161 4.8 4.8 0.00 0.00 0.00 45 1018.0
20260905223340 20 136 6.4 6.4 0.00 0.00 0.00 47 1018.2
20260905222840 20 130 8.0 11.3 0.00 0.00 0.00 47 1018.3
20260905222338 20 109 8.0 9.7 0.00 0.00 0.00 46 1018.1
20260905221835 20 149 1.6 4.8 0.00 0.00 0.00 49 1018.4
20260905221331 20 194 3.2 4.8 0.00 0.00 0.00 47 1018.5
20260905220827 20 143 4.8 6.4 0.00 0.00 0.00 49 1018.6
20260905220323 20 148 4.8 4.8 0.00 0.00 0.00 47 1018.4
20260905215822 20 243 0.0 1.6 0.00 0.00 0.00 48 1018.4
20260905215318 20 149 3.2 4.8 0.00 0.00 0.00 47 1018.6
20260905214814 20 113 4.8 6.4 0.00 0.00 0.00 47 1018.6
20260905214309 20 220 1.6 1.6 0.00 0.00 0.00 47 1018.6
20260905213804 20 122 6.4 6.4 0.00 0.00 0.00 47 1018.7
20260905213300 19 12 3.2 3.2 0.00 0.00 0.00 48 1018.6
20260905212755 20 154 4.8 4.8 0.00 0.00 0.00 49 1018.8
20260905212255 19 119 6.4 6.4 0.00 0.00 0.00 49 1018.8
20260905211754 19 111 8.0 9.7 0.00 0.00 0.00 49 1018.8
20260905211250 19 244 0.0 1.6 0.00 0.00 0.00 49 1018.8
20260905210747 19 239 0.0 0.0 0.00 0.00 0.00 47 1019.0
20260905210246 19 266 0.0 0.0 0.00 0.00 0.00 47 1018.9